#timestamp,LO_Frequency,Hit,StdDev 
1633028415.2,286047000.6,N
1633028435.0,286047000.7,N
1633028435.9,286047000.7,N
1633028455.8,286046998.1,N
1633028475.6,286047000.4,N
1633028495.4,286047000.3,N
1633028515.3,286046999.8,N
1633028535.1,286047002.8,N
1633028555.9,286046999.8,N
1633028575.7,286046999.9,N
1633028595.5,286046999.7,N
1633028615.4,286047001.9,N
1633028635.2,286047002.6,N
1633028655.0,286047002.3,N
1633028656.0,286047002.3,N
1633028675.8,286047000.1,N
1633028695.6,286047002.8,N
1633028715.5,286046999.9,N
1633028735.3,286047002.1,N
1633028755.1,286047001.4,N
1633028775.9,286046999.8,N
1633028795.7,286047002.4,N
1633028815.6,286047000.8,N
1633028835.4,286046999.0,N
1633028855.2,286046996.7,N
1633028875.1,286046996.7,N
1633028876.0,286046996.7,N
1633028895.8,286046998.4,N
1633028915.6,286046998.9,N
1633028935.5,286047000.5,N
1633028955.3,286047000.1,N
1633028975.2,286047002.7,N
1633028995.9,286047000.2,N
1633029015.7,286047000.2,N
1633029035.6,286047000.9,N
1633029055.4,286047000.7,N
1633029075.3,286046998.6,N
1633029095.1,286047000.6,N
1633029115.8,286047000.7,N
1633029135.7,286047000.2,N
1633029155.5,286047002.4,N
1633029175.4,286047004.0,N
1633029195.2,286047002.3,N
1633029215.0,286046999.8,N
1633029215.9,286046999.8,N
1633029235.8,286047000.1,N
1633029255.6,286046998.7,N
1633029275.4,286046999.1,N
1633029295.3,286046998.4,N
1633029315.1,286046998.6,N
1633029335.9,286047000.4,N
1633029355.7,286047000.2,N
1633029375.5,286046998.1,N
1633029395.4,286046998.2,N
1633029415.2,286047000.6,N
1633029435.1,286047002.3,N
1633029436.0,286047002.3,N
1633029455.8,286047001.7,N
1633029475.6,286047001.7,N
1633029495.5,286047004.2,N
1633029515.3,286047004.1,N
1633029535.2,286047003.9,N
1633029555.9,286047005.6,Y
1633029575.7,286047001.4,P
1633029595.6,286047001.4,P
1633029615.4,286047001.3,P
1633029635.2,286047002.1,Y
1633029655.1,286047000.8,P
1633029656.0,286047000.8,P
1633029675.8,286047002.7,P
1633029695.7,286046999.9,N
1633029715.5,286047000.0,N
1633029735.3,286047002.6,N
1633029755.2,286047002.1,N
1633029775.0,286047002.2,N
1633029775.9,286047002.2,N
1633029795.8,286047002.5,N
1633029815.4,286047004.2,Y
1633029835.2,286047002.4,P
1633029855.0,286047001.7,P
1633029855.9,286047001.7,P
1633029875.8,286047002.0,Y
1633029895.6,286046999.1,P
1633029915.5,286046998.9,N
1633029935.3,286046999.1,N
1633029955.1,286046996.7,N
1633029975.9,286046997.6,N
1633029995.7,286046999.4,N
1633030015.5,286046999.4,N
1633030035.4,286046996.6,N
1633030055.2,286046999.3,N
1633030075.1,286046998.7,N
1633030076.0,286046998.7,N
1633030095.8,286046998.3,N
1633030115.6,286046999.5,N
1633030135.5,286046996.7,N
1633030155.3,286046996.7,N
1633030175.2,286046999.5,N
1633030195.9,286046998.4,N
1633030215.7,286046999.6,N
1633030235.6,286046994.9,Y
1633030255.4,286046998.9,P
1633030305.3,286046998.2,E
1633030315.2,286046998.1,N
1633030335.0,286046999.9,P
1633030335.9,286046999.9,N
1633030355.8,286047001.2,N
1633030375.6,286047002.8,N
1633030395.5,286047002.7,N
1633030415.3,286047000.2,N
1633030435.1,286047002.2,N
1633030455.9,286047001.9,N
1633030475.7,286047002.7,N
1633030495.5,286047002.8,N
1633030515.4,286047000.9,N
1633030535.2,286047002.4,N
1633030555.1,286047002.5,N
1633030556.0,286047002.5,N
1633030575.8,286047001.9,N
1633030595.6,286047001.5,N
1633030615.5,286047004.2,Y
1633030635.3,286047002.3,P
1633030655.1,286046999.9,N
1633030675.9,286046998.2,N
1633030695.7,286046996.9,N
1633030715.6,286046994.9,N
1633030735.4,286046995.7,N
1633030755.2,286046995.7,N
1633030775.1,286046995.7,N
1633030776.0,286046995.7,N
1633030795.8,286046996.7,N
1633030815.7,286046996.8,N
1633030835.5,286046996.9,N
1633030855.3,286046999.4,N
1633030875.2,286046999.6,N
1633030895.0,286046998.6,N
1633030895.9,286046998.6,N
1633030915.8,286046998.1,N
1633030935.6,286047001.1,N
1633030955.4,286046998.1,N
1633030975.3,286046998.4,N
1633030995.1,286046998.9,N
1633031015.8,286046999.6,N
1633031035.7,286046998.9,N
1633031055.5,286047001.0,N
1633031075.4,286046998.5,N
1633031095.2,286046998.6,N
1633031115.0,286046999.9,N
1633031115.9,286046999.9,N
1633031135.8,286047000.9,N
1633031155.6,286046998.1,N
1633031175.4,286046998.2,N
1633031195.3,286047000.9,N
1633031215.1,286047000.1,N
1633031235.9,286047001.7,N
1633031255.7,286047002.0,N
1633031275.5,286047004.4,N
1633031295.4,286047002.5,N
1633031315.2,286047000.1,N
1633031335.0,286047000.7,N
1633031335.9,286047000.7,N
1633031355.8,286047000.9,N
1633031375.6,286047000.3,N
1633031395.5,286047001.2,N
1633031415.3,286046999.9,N
1633031435.1,286047001.1,N
1633031455.9,286046998.6,N
1633031475.7,286047000.2,N
1633031495.6,286047000.1,N
1633031515.4,286047001.0,N
1633031535.2,286046998.4,N
1633031555.1,286046998.9,N
1633031556.0,286046998.9,N
1633031575.8,286046999.4,N
1633031595.6,286047000.7,N
1633031615.5,286047001.2,N
1633031635.3,286047000.8,N
1633031655.2,286047000.3,N
1633031675.9,286046998.6,N
1633031695.7,286046999.0,N
1633031745.6,286047000.8,E
1633031755.5,286047000.0,N
1633031775.4,286047000.8,P
1633031795.2,286046999.3,N
1633031815.0,286046998.4,N
1633031815.9,286046998.4,N
1633031835.8,286046998.4,N
1633031855.6,286046998.7,N
1633031875.5,286046999.2,N
1633031895.3,286046999.5,N
1633031915.1,286046997.0,Y
1633031935.9,286046997.2,P
1633031955.7,286046997.5,N
1633031975.5,286046995.9,P
1633031995.4,286046996.1,Y
